Danville, KY

8:05 AM EDT on September 26, 2017 (GMT -0400)
Powell

Weather History for KDVK - October, 2012

Change the Weather History Date:

Thursday, October 4, 2012

  Actual Average (KLEX) Record (KLEX)
Temperature  
Mean Temperature 63 °F -  
Max Temperature 75 °F 71 °F 91 °F (1959)
Min Temperature 51 °F 50 °F 32 °F (1987)
Degree Days  
Heating Degree Days 2    
Growing Degree Days 13 (Base 50)    
Moisture  
Dew Point 54 °F    
Average Humidity 83    
Maximum Humidity 100    
Minimum Humidity 50    
Precipitation  
Precipitation 0.00 in - - ()
Sea Level Pressure  
Sea Level Pressure 30.25 in    
Wind  
Wind Speed 3 mph (SW)    
Max Wind Speed 10 mph    
Max Gust Speed -    
Visibility 10 miles    
Events      
Averages and records for this station are not official NWS values.
T = Trace of Precipitation, MM = Missing Value Source: NWS Daily Summary

Daily Weather History Graph

Daily Weather History Graph

Search for Another Location

Airport or City:

Trip Planner

Search our weather history database for the weather conditions in past years. The results will help you decide how hot, cold, wet, or windy it might be!

Date:

Astronomy

Oct. 04, 2012 Rise Set
Actual Time 7:37 AM EDT 7:16 PM EDT
Civil Twilight 7:11 AM EDT 7:43 PM EDT
Nautical Twilight 6:41 AM EDT 8:13 PM EDT
Astronomical Twilight 6:10 AM EDT 8:43 PM EDT
Moon 9:57 PM EDT (10/4) 11:48 AM EDT (10/4)
Length of Visible Light 12h 31m
Length of Day
11h 39m
Waning Gibbous, 82% of the Moon is Illuminated
Oct 4
Waning Gibbous
Oct 8
Last Quarter
Oct 15
New
Oct 21
First Quarter
Oct 29
Full

Hourly Weather History & Observations

Time (EDT) Temp. Dew Point Humidity Pressure Visibility Wind Dir Wind Speed Gust Speed Precip Events Conditions
12:15 AM 51.8 °F 51.8 °F 100% 30.19 in 10.0 mi Calm Calm - N/A   Clear
12:35 AM 51.8 °F 51.8 °F 100% 30.20 in 10.0 mi Calm Calm - N/A   Clear
12:55 AM 51.8 °F 51.8 °F 100% 30.20 in 10.0 mi Calm Calm - N/A   Clear
1:15 AM 51.8 °F 51.8 °F 100% 30.20 in 7.0 mi Calm Calm - N/A   Clear
1:35 AM 51.8 °F 51.8 °F 100% 30.20 in 7.0 mi Calm Calm - N/A   Clear
1:55 AM 51.8 °F 51.8 °F 100% 30.21 in 7.0 mi Calm Calm - N/A   Scattered Clouds
2:15 AM 51.8 °F 51.8 °F 100% 30.21 in 10.0 mi Calm Calm - N/A   Scattered Clouds
2:35 AM 53.6 °F 51.8 °F 94% 30.21 in 10.0 mi SSW 3.5 mph - N/A   Clear
2:55 AM 53.6 °F 51.8 °F 94% 30.21 in 10.0 mi Calm Calm - N/A   Clear
3:15 AM 51.8 °F 50.0 °F 94% 30.21 in 10.0 mi Calm Calm - N/A   Scattered Clouds
3:35 AM 51.8 °F 51.8 °F 100% 30.21 in 10.0 mi Calm Calm - N/A   Scattered Clouds
3:55 AM 53.6 °F 51.8 °F 94% 30.21 in 10.0 mi Calm Calm - N/A   Scattered Clouds
4:15 AM 51.8 °F 51.8 °F 100% 30.21 in 10.0 mi SSW 4.6 mph - N/A   Clear
4:35 AM 53.6 °F 51.8 °F 94% 30.21 in 10.0 mi South 4.6 mph - N/A   Clear
4:55 AM 53.6 °F 53.6 °F 100% 30.21 in 10.0 mi South 5.8 mph - N/A   Clear
5:15 AM 53.6 °F 53.6 °F 100% 30.22 in 10.0 mi SSW 5.8 mph - N/A   Clear
5:35 AM 53.6 °F 53.6 °F 100% 30.23 in 10.0 mi SSW 5.8 mph - N/A   Clear
5:55 AM 53.6 °F 53.6 °F 100% 30.23 in 10.0 mi SSW 4.6 mph - N/A   Clear
6:15 AM 53.6 °F 51.8 °F 94% 30.24 in 10.0 mi SSW 4.6 mph - N/A   Clear
6:35 AM 53.6 °F 51.8 °F 94% 30.25 in 10.0 mi SSW 4.6 mph - N/A   Clear
6:55 AM 53.6 °F 51.8 °F 94% 30.25 in 10.0 mi SSW 4.6 mph - N/A   Clear
7:15 AM 53.6 °F 51.8 °F 94% 30.26 in 10.0 mi SSW 4.6 mph - N/A   Clear
7:35 AM 53.6 °F 51.8 °F 94% 30.26 in 10.0 mi South 4.6 mph - N/A   Clear
7:55 AM 53.6 °F 53.6 °F 100% 30.26 in 10.0 mi South 4.6 mph - N/A   Clear
8:15 AM 53.6 °F 53.6 °F 100% 30.27 in 10.0 mi SSW 6.9 mph - N/A   Clear
8:35 AM 55.4 °F 53.6 °F 94% 30.27 in 10.0 mi SSW 5.8 mph - N/A   Clear
8:55 AM 55.4 °F 53.6 °F 94% 30.27 in 10.0 mi SSW 3.5 mph - N/A   Clear
9:15 AM 59.0 °F 55.4 °F 88% 30.28 in 10.0 mi SSW 4.6 mph - N/A   Clear
9:35 AM 60.8 °F 55.4 °F 82% 30.28 in 10.0 mi SSW 5.8 mph - N/A   Clear
9:55 AM 60.8 °F 57.2 °F 88% 30.29 in 10.0 mi SSW 8.1 mph - N/A   Clear
10:15 AM 62.6 °F 57.2 °F 82% 30.29 in 10.0 mi SSW 8.1 mph - N/A   Clear
10:35 AM 64.4 °F 57.2 °F 77% 30.29 in 10.0 mi SW 8.1 mph - N/A   Clear
10:55 AM 64.4 °F 59.0 °F 83% 30.29 in 10.0 mi SSW 5.8 mph - N/A   Clear
11:15 AM 68.0 °F 59.0 °F 73% 30.29 in 10.0 mi SW 5.8 mph - N/A   Clear
11:35 AM 68.0 °F 59.0 °F 73% 30.29 in 10.0 mi SW 5.8 mph - N/A   Clear
12:15 PM 71.6 °F 59.0 °F 64% 30.29 in 10.0 mi WSW 8.1 mph - N/A   Clear
12:35 PM 71.6 °F 57.2 °F 60% 30.28 in 10.0 mi SW 9.2 mph - N/A   Scattered Clouds
12:55 PM 73.4 °F 57.2 °F 57% 30.28 in 10.0 mi West 8.1 mph - N/A   Mostly Cloudy
1:15 PM 73.4 °F 55.4 °F 53% 30.28 in 10.0 mi West 8.1 mph - N/A   Mostly Cloudy
1:35 PM 73.4 °F 55.4 °F 53% 30.28 in 10.0 mi WSW 9.2 mph - N/A   Mostly Cloudy
1:55 PM 73.4 °F 55.4 °F 53% 30.27 in 10.0 mi SW 10.4 mph - N/A   Mostly Cloudy
2:15 PM 75.2 °F 55.4 °F 50% 30.26 in 10.0 mi West 6.9 mph - N/A   Mostly Cloudy
2:35 PM 73.4 °F 55.4 °F 53% 30.25 in 10.0 mi SW 6.9 mph - N/A   Scattered Clouds
2:55 PM 73.4 °F 55.4 °F 53% 30.25 in 10.0 mi WSW 8.1 mph - N/A   Scattered Clouds
3:15 PM 73.4 °F 53.6 °F 50% 30.24 in 10.0 mi WSW 4.6 mph - N/A   Mostly Cloudy
3:35 PM 75.2 °F 55.4 °F 50% 30.23 in 10.0 mi SW 10.4 mph - N/A   Mostly Cloudy
3:55 PM 73.4 °F 53.6 °F 50% 30.23 in 10.0 mi WSW 6.9 mph - N/A   Scattered Clouds